OE3MNS-12 Weather Reports


time (UTC)temp
F
wind
direction
speed
knots
gust
knots
rain 1hr
in
rain 24hr
in
rain mn
in
humidity
%
barometer
mb
20260905222520 65 262 0.9 3.5 0.00 0.11 0.00 69 1024.6
20260905221517 66 274 3.5 7.0 0.00 0.11 0.00 67 1024.5
20260905220520 67 346 1.7 3.5 0.00 0.11 0.00 66 1024.3
20260905215519 68 259 6.1 9.6 0.00 0.11 0.11 64 1024.1
20260905214542 68 247 7.0 11.3 0.00 0.11 0.11 63 1023.9
20260905213517 68 245 6.1 13.9 0.00 0.11 0.11 63 1023.7
20260905212521 68 248 7.0 14.8 0.00 0.11 0.11 62 1023.6
20260905211521 68 245 7.0 11.3 0.00 0.11 0.11 62 1023.5
20260905210517 69 244 7.0 12.2 0.00 0.11 0.11 61 1023.5
20260905205520 69 241 7.0 13.9 0.00 0.11 0.11 60 1023.4
20260905204521 69 237 7.0 13.0 0.00 0.11 0.11 60 1023.5
20260905203522 69 241 7.0 11.3 0.00 0.11 0.11 59 1023.3
20260905202518 69 240 7.0 12.2 0.00 0.11 0.11 59 1023.2
20260905201519 70 235 6.1 11.3 0.00 0.11 0.11 59 1023.2
20260905200544 70 236 7.0 13.9 0.00 0.11 0.11 59 1023.0
20260905195521 70 236 5.2 10.4 0.00 0.11 0.11 59 1023.0
20260905194517 70 237 6.1 13.0 0.00 0.11 0.11 59 1023.0
20260905193520 70 241 7.0 11.3 0.00 0.11 0.11 59 1022.9
20260905192520 70 240 7.0 12.2 0.00 0.11 0.11 59 1022.8
20260905191519 70 235 7.0 13.0 0.00 0.11 0.11 59 1022.7
20260905190603 70 236 7.0 13.0 0.00 0.11 0.11 59 1022.7
20260905185522 70 240 6.1 13.0 0.00 0.11 0.11 59 1022.5
20260905184521 70 235 4.3 8.7 0.00 0.11 0.11 59 1022.5
20260905183517 71 237 5.2 8.7 0.00 0.11 0.11 58 1022.3
20260905182519 71 244 6.1 11.3 0.00 0.11 0.11 57 1022.2
20260905181522 71 245 6.1 10.4 0.00 0.11 0.11 57 1022.1
20260905180542 71 244 6.1 11.3 0.00 0.11 0.11 56 1022.0
20260905175519 72 242 7.0 13.0 0.00 0.11 0.11 55 1021.7
20260905174519 72 245 7.0 13.0 0.00 0.11 0.11 55 1021.5
20260905173542 72 239 6.1 12.2 0.00 0.11 0.11 54 1021.5
20260905172518 72 240 6.1 11.3 0.00 0.11 0.11 54 1021.4
20260905171520 73 243 7.0 10.4 0.00 0.11 0.11 53 1021.5
20260905170520 73 248 8.7 15.6 0.00 0.11 0.11 52 1021.5
20260905165536 74 246 6.1 11.3 0.00 0.11 0.11 51 1021.2
20260905164538 74 249 7.8 13.0 0.00 0.11 0.11 50 1021.2
20260905163519 75 250 9.6 15.6 0.00 0.11 0.11 49 1021.2
20260905162523 75 244 7.0 13.9 0.00 0.11 0.11 48 1020.8
20260905161518 75 248 9.6 19.1 0.00 0.11 0.11 48 1020.9
20260905160519 76 250 8.7 13.9 0.00 0.11 0.11 48 1020.9
20260905155521 76 247 7.8 14.8 0.00 0.11 0.11 47 1020.8
20260905154519 76 250 11.3 18.2 0.00 0.11 0.11 46 1020.7
20260905153520 76 252 12.2 18.2 0.00 0.11 0.11 47 1020.7
20260905152518 76 250 12.2 20.0 0.00 0.11 0.11 46 1020.7
20260905151519 76 249 11.3 18.2 0.00 0.11 0.11 47 1020.6
20260905150522 75 250 11.3 20.0 0.00 0.11 0.11 48 1020.7
20260905145603 75 249 10.4 17.4 0.00 0.11 0.11 48 1020.8
20260905144518 75 250 11.3 20.0 0.00 0.11 0.11 49 1020.8
20260905143520 75 246 10.4 18.2 0.00 0.11 0.11 50 1020.6
20260905142520 75 251 12.2 17.4 0.00 0.11 0.11 50 1020.7
20260905141520 75 250 9.6 20.0 0.00 0.11 0.11 50 1020.7
20260905140517 75 249 9.6 20.9 0.00 0.11 0.11 51 1020.7
20260905135520 74 246 11.3 19.1 0.00 0.11 0.11 52 1020.8
20260905134520 74 248 11.3 19.1 0.00 0.11 0.11 53 1021.0
20260905133518 73 242 9.6 17.4 0.00 0.11 0.11 54 1021.0
20260905132519 74 242 7.8 16.5 0.00 0.11 0.11 54 1021.0
20260905131520 73 249 10.4 17.4 0.00 0.11 0.11 54 1021.2
20260905130539 73 248 10.4 19.1 0.00 0.11 0.11 55 1021.4
20260905125519 73 248 12.2 20.9 0.00 0.11 0.11 54 1021.4
20260905124521 72 246 9.6 18.2 0.00 0.11 0.11 56 1021.3
20260905123518 72 252 13.9 22.6 0.00 0.11 0.11 56 1021.5
20260905122519 72 245 11.3 21.7 0.00 0.11 0.11 56 1021.4
20260905121521 71 240 10.4 17.4 0.00 0.11 0.11 57 1021.4
20260905120517 71 243 11.3 20.0 0.00 0.11 0.11 58 1021.3
20260905115518 71 235 8.7 20.0 0.00 0.11 0.11 59 1021.3
20260905114522 70 241 9.6 19.1 0.00 0.11 0.11 59 1021.4
20260905113518 71 241 10.4 20.9 0.00 0.11 0.11 61 1021.4
20260905112519 70 244 11.3 25.2 0.00 0.11 0.11 63 1021.4
20260905111521 69 244 11.3 25.2 0.00 0.11 0.11 64 1021.4
20260905110520 69 247 13.9 25.2 0.00 0.11 0.11 65 1021.5
20260905105519 69 246 15.6 24.3 0.00 0.11 0.11 67 1021.5
20260905104541 67 247 12.2 24.3 0.00 0.11 0.11 71 1021.5
20260905103519 67 250 17.4 25.2 0.00 0.11 0.11 72 1021.6
20260905102521 67 248 13.9 24.3 0.00 0.11 0.11 74 1021.6
20260905101538 65 248 13.9 22.6 0.00 0.11 0.11 76 1021.9
20260905100518 65 248 13.9 21.7 0.00 0.11 0.11 77 1021.9
20260905095540 65 247 12.2 20.9 0.00 0.11 0.11 78 1021.9
20260905094517 65 246 10.4 19.1 0.00 0.11 0.11 77 1021.8
20260905093520 65 245 12.2 19.1 0.00 0.11 0.11 78 1021.8
20260905092522 64 244 9.6 16.5 0.00 0.11 0.11 79 1021.8
20260905091518 64 241 8.7 17.4 0.00 0.11 0.11 79 1021.9
20260905090520 63 239 7.8 13.9 0.00 0.11 0.11 79 1021.8
20260905085602 63 235 7.0 13.0 0.01 0.11 0.11 81 1021.9
20260905084519 62 207 4.3 11.3 0.02 0.11 0.11 83 1021.7
20260905083519 62 209 3.5 7.0 0.02 0.11 0.11 84 1021.8
20260905082542 61 205 3.5 7.8 0.02 0.11 0.11 85 1021.9
20260905081516 61 206 3.5 7.8 0.02 0.11 0.11 84 1022.2
20260905080521 61 218 3.5 7.8 0.02 0.10 0.10 85 1022.5
20260905075517 61 210 3.5 7.8 0.01 0.10 0.10 85 1022.4
20260905074518 61 205 6.1 11.3 0.01 0.09 0.09 85 1022.5
20260905073522 61 202 4.3 8.7 0.03 0.09 0.09 85 1022.5
20260905072517 61 226 2.6 7.0 0.05 0.09 0.09 85 1022.3
20260905071520 60 210 2.6 6.1 0.05 0.09 0.09 86 1022.6
20260905070541 60 208 2.6 6.1 0.05 0.09 0.09 87 1022.4
20260905065519 60 210 2.6 5.2 0.06 0.09 0.09 85 1021.8
20260905064519 60 151 2.6 5.2 0.06 0.08 0.08 84 1021.5
20260905063523 61 226 3.5 7.8 0.03 0.06 0.06 83 1022.5
20260905062517 61 251 4.3 7.8 0.01 0.04 0.04 81 1022.0
20260905061521 61 194 1.7 3.5 0.01 0.04 0.04 79 1021.3
20260905060520 62 232 3.5 6.1 0.01 0.04 0.04 75 1021.4
20260905055519 63 247 1.7 5.2 0.00 0.03 0.03 70 1021.5
20260905054519 64 302 2.6 7.0 0.00 0.03 0.03 67 1021.4
20260905053520 66 292 4.3 10.4 0.00 0.03 0.03 61 1020.9
20260905052518 67 349 3.5 8.7 0.00 0.03 0.03 60 1020.6
20260905051518 67 7 4.3 7.8 0.00 0.03 0.03 60 1019.6
20260905050520 67 20 3.5 6.1 0.01 0.03 0.03 59 1019.8
20260905045522 67 13 4.3 9.6 0.01 0.03 0.03 60 1019.3
20260905044523 67 9 3.5 7.0 0.01 0.03 0.03 64 1019.2
20260905043517 66 24 3.5 9.6 0.01 0.03 0.03 69 1019.0
20260905042521 66 19 2.6 5.2 0.02 0.03 0.03 69 1019.0
20260905041522 67 131 1.7 4.3 0.02 0.03 0.03 70 1019.0
20260905040539 67 11 1.7 5.2 0.01 0.02 0.02 68 1018.7
20260905035521 67 6 2.6 5.2 0.01 0.02 0.02 67 1018.5
20260905034543 67 23 1.7 5.2 0.01 0.02 0.02 69 1018.4
20260905033518 69 357 3.5 6.1 0.01 0.02 0.02 66 1018.4
20260905032519 70 324 4.3 8.7 0.00 0.01 0.01 58 1018.3
20260905031521 71 9 4.3 8.7 0.00 0.01 0.01 61 1017.9
20260905030518 71 20 4.3 9.6 0.00 0.01 0.01 63 1017.4
20260905025519 74 344 6.1 15.6 0.00 0.01 0.01 59 1016.6
20260905024519 76 239 5.2 11.3 0.01 0.01 0.01 51 1015.3
20260905023522 75 222 4.3 9.6 0.01 0.01 0.01 53 1015.0
20260905022520 75 253 5.2 8.7 0.01 0.01 0.01 55 1014.8
20260905021602 73 247 5.2 10.4 0.01 0.01 0.01 58 1014.7
20260905020518 72 243 2.6 5.2 0.01 0.01 0.01 65 1014.8
20260905015518 73 238 2.6 7.8 0.01 0.01 0.01 60 1014.9
20260905014520 76 255 6.1 11.3 0.00 0.00 0.00 49 1014.9
20260905013519 77 258 5.2 8.7 0.00 0.00 0.00 49 1014.7
20260905012520 78 251 5.2 11.3 0.00 0.00 0.00 45 1014.7
20260905011521 78 241 4.3 11.3 0.00 0.00 0.00 45 1014.6
20260905010518 77 234 4.3 8.7 0.00 0.00 0.00 45 1014.4
20260905005520 76 250 4.3 9.6 0.00 0.00 0.00 47 1014.4
20260905004540 71 260 2.6 4.3 0.00 0.00 0.00 56 1014.4
20260905003519 70 219 0.0 1.7 0.00 0.00 0.00 58 1014.4
20260905002521 70 221 1.7 3.5 0.00 0.00 0.00 58 1014.5
20260905001519 71 31 0.9 1.7 0.00 0.00 0.00 57 1014.4
20260905000520 72 330 0.9 2.6 0.00 0.00 0.00 55 1014.2
20260904235521 73 298 2.6 5.2 0.00 0.00 0.00 53 1014.0
20260904234539 72 255 4.3 8.7 0.00 0.00 0.00 54 1014.1
20260904233519 70 253 1.7 3.5 0.00 0.00 0.00 57 1014.1
20260904232518 69 251 1.7 3.5 0.00 0.00 0.00 58 1014.1
20260904231518 69 287 0.0 1.7 0.00 0.00 0.00 59 1014.1
20260904230520 69 153 0.0 2.6 0.00 0.00 0.00 59 1014.1
20260904225517 70 121 0.0 1.7 0.00 0.00 0.00 59 1013.9
20260904224519 70 82 0.0 1.7 0.00 0.00 0.00 57 1013.9
20260904223520 70 130 1.7 3.5 0.00 0.00 0.00 57 1013.8